FIT����(1)(���z���E����)�̑O�X���z��l,PV(MWh),WT(MWh),���v(MWh)
2018/1/1 0:00,0,0.3,0.3
2018/1/1 0:30,0,0.3,0.3
2018/1/1 1:00,0,0.3,0.3
2018/1/1 1:30,0,0.3,0.3
2018/1/1 2:00,0,0.3,0.3
2018/1/1 2:30,0,0.3,0.3
2018/1/1 3:00,0,0.3,0.3
2018/1/1 3:30,0,0.3,0.3
2018/1/1 4:00,0,0.3,0.3
2018/1/1 4:30,0,0.3,0.3
2018/1/1 5:00,0,0.3,0.3
2018/1/1 5:30,0,0.3,0.3
2018/1/1 6:00,0,0.4,0.4
2018/1/1 6:30,0,0.5,0.5
2018/1/1 7:00,0,0.5,0.5
2018/1/1 7:30,0,0.6,0.6
2018/1/1 8:00,5.6,0.8,6.4
2018/1/1 8:30,17.2,0.9,18.1
2018/1/1 9:00,29.2,1.1,30.3
2018/1/1 9:30,40.3,1.2,41.5
2018/1/1 10:00,49.7,1.3,51
2018/1/1 10:30,57.7,1.4,59.1
2018/1/1 11:00,62.7,1.4,64.1
2018/1/1 11:30,67.7,1.4,69.1
2018/1/1 12:00,71.2,1.4,72.6
2018/1/1 12:30,74.4,1.4,75.8
2018/1/1 13:00,74.7,1.4,76.1
2018/1/1 13:30,72,1.3,73.3
2018/1/1 14:00,68.1,1.1,69.2
2018/1/1 14:30,63.1,1,64.1
2018/1/1 15:00,57.9,0.9,58.8
2018/1/1 15:30,49.7,0.7,50.4
2018/1/1 16:00,40.1,0.6,40.7
2018/1/1 16:30,29.8,0.5,30.3
2018/1/1 17:00,18.3,0.4,18.7
2018/1/1 17:30,6.6,0.3,6.9
2018/1/1 18:00,0.2,0.3,0.5
2018/1/1 18:30,0,0.3,0.3
2018/1/1 19:00,0,0.3,0.3
2018/1/1 19:30,0,0.3,0.3
2018/1/1 20:00,0,0.3,0.3
2018/1/1 20:30,0,0.3,0.3
2018/1/1 21:00,0,0.3,0.3
2018/1/1 21:30,0,0.3,0.3
2018/1/1 22:00,0,0.3,0.3
2018/1/1 22:30,0,0.3,0.3
2018/1/1 23:00,0,0.2,0.2
2018/1/1 23:30,0,0.2,0.2
2018/1/2 0:00,0,0.1,0.1
2018/1/2 0:30,0,0.1,0.1
2018/1/2 1:00,0,0.1,0.1
2018/1/2 1:30,0,0.1,0.1
2018/1/2 2:00,0,0.1,0.1
2018/1/2 2:30,0,0.1,0.1
2018/1/2 3:00,0,0.1,0.1
2018/1/2 3:30,0,0.1,0.1
2018/1/2 4:00,0,0.1,0.1
2018/1/2 4:30,0,0.1,0.1
2018/1/2 5:00,0,0.1,0.1
2018/1/2 5:30,0,0.1,0.1
2018/1/2 6:00,0,0.1,0.1
2018/1/2 6:30,0,0.1,0.1
2018/1/2 7:00,0,0.1,0.1
2018/1/2 7:30,0,0.2,0.2
2018/1/2 8:00,4.6,0.2,4.8
2018/1/2 8:30,13.7,0.3,14
2018/1/2 9:00,23.1,0.4,23.5
2018/1/2 9:30,32.2,0.5,32.7
2018/1/2 10:00,40.7,0.5,41.2
2018/1/2 10:30,47.9,0.5,48.4
2018/1/2 11:00,53.4,0.5,53.9
2018/1/2 11:30,57.6,0.6,58.2
2018/1/2 12:00,61.3,0.7,62
2018/1/2 12:30,66.8,0.7,67.5
2018/1/2 13:00,67.9,0.7,68.6
2018/1/2 13:30,66.6,0.7,67.3
2018/1/2 14:00,64.1,0.7,64.8
2018/1/2 14:30,58.5,0.7,59.2
2018/1/2 15:00,51.8,0.6,52.4
2018/1/2 15:30,40.5,0.5,41
2018/1/2 16:00,30.2,0.4,30.6
2018/1/2 16:30,21,0.4,21.4
2018/1/2 17:00,12.6,0.3,12.9
2018/1/2 17:30,4.8,0.3,5.1
2018/1/2 18:00,0.1,0.3,0.4
2018/1/2 18:30,0,0.3,0.3
2018/1/2 19:00,0,0.3,0.3
2018/1/2 19:30,0,0.2,0.2
2018/1/2 20:00,0,0.2,0.2
2018/1/2 20:30,0,0.2,0.2
2018/1/2 21:00,0,0.3,0.3
2018/1/2 21:30,0,0.2,0.2
2018/1/2 22:00,0,0.2,0.2
2018/1/2 22:30,0,0.2,0.2
2018/1/2 23:00,0,0.2,0.2
2018/1/2 23:30,0,0.1,0.1
2018/1/3 0:00,0,0.4,0.4
2018/1/3 0:30,0,0.4,0.4
2018/1/3 1:00,0,0.4,0.4
2018/1/3 1:30,0,0.4,0.4
2018/1/3 2:00,0,0.3,0.3
2018/1/3 2:30,0,0.3,0.3
2018/1/3 3:00,0,0.3,0.3
2018/1/3 3:30,0,0.3,0.3
2018/1/3 4:00,0,0.2,0.2
2018/1/3 4:30,0,0.2,0.2
2018/1/3 5:00,0,0.2,0.2
2018/1/3 5:30,0,0.2,0.2
2018/1/3 6:00,0,0.2,0.2
2018/1/3 6:30,0,0.2,0.2
2018/1/3 7:00,0,0.2,0.2
2018/1/3 7:30,0,0.3,0.3
2018/1/3 8:00,5.4,0.3,5.7
2018/1/3 8:30,16.7,0.3,17
2018/1/3 9:00,27.5,0.4,27.9
2018/1/3 9:30,37.1,0.4,37.5
2018/1/3 10:00,44.9,0.4,45.3
2018/1/3 10:30,50,0.5,50.5
2018/1/3 11:00,53.8,0.6,54.4
2018/1/3 11:30,55.6,0.6,56.2
2018/1/3 12:00,56.2,0.7,56.9
2018/1/3 12:30,57.2,0.7,57.9
2018/1/3 13:00,57,0.8,57.8
2018/1/3 13:30,54.7,0.8,55.5
2018/1/3 14:00,51.8,0.8,52.6
2018/1/3 14:30,49.4,0.7,50.1
2018/1/3 15:00,46.1,0.6,46.7
2018/1/3 15:30,39.5,0.5,40
2018/1/3 16:00,32.5,0.4,32.9
2018/1/3 16:30,24.6,0.3,24.9
2018/1/3 17:00,15.9,0.2,16.1
2018/1/3 17:30,6,0.2,6.2
2018/1/3 18:00,0.2,0.1,0.3
2018/1/3 18:30,0,0.1,0.1
2018/1/3 19:00,0,0.1,0.1
2018/1/3 19:30,0,0,0
2018/1/3 20:00,0,0,0
2018/1/3 20:30,0,0,0
2018/1/3 21:00,0,0,0
2018/1/3 21:30,0,0,0
2018/1/3 22:00,0,0,0
2018/1/3 22:30,0,0,0
2018/1/3 23:00,0,0,0
2018/1/3 23:30,0,0,0
2018/1/4 0:00,0,0,0
2018/1/4 0:30,0,0,0
2018/1/4 1:00,0,0,0
2018/1/4 1:30,0,0,0
2018/1/4 2:00,0,0,0
2018/1/4 2:30,0,0,0
2018/1/4 3:00,0,0,0
2018/1/4 3:30,0,0,0
2018/1/4 4:00,0,0,0
2018/1/4 4:30,0,0,0
2018/1/4 5:00,0,0,0
2018/1/4 5:30,0,0,0
2018/1/4 6:00,0,0,0
2018/1/4 6:30,0,0,0
2018/1/4 7:00,0,0,0
2018/1/4 7:30,0,0,0
2018/1/4 8:00,4.1,0,4.1
2018/1/4 8:30,12.3,0,12.3
2018/1/4 9:00,21.1,0,21.1
2018/1/4 9:30,29.6,0,29.6
2018/1/4 10:00,37.3,0,37.3
2018/1/4 10:30,45.2,0,45.2
2018/1/4 11:00,52.7,0,52.7
2018/1/4 11:30,58,0,58
2018/1/4 12:00,61.3,0,61.3
2018/1/4 12:30,63.4,0,63.4
2018/1/4 13:00,64.3,0,64.3
2018/1/4 13:30,63.8,0,63.8
2018/1/4 14:00,61.3,0,61.3
2018/1/4 14:30,55.7,0,55.7
2018/1/4 15:00,47.3,0,47.3
2018/1/4 15:30,36.6,0,36.6
2018/1/4 16:00,26.5,0,26.5
2018/1/4 16:30,18.2,0,18.2
2018/1/4 17:00,11.3,0,11.3
2018/1/4 17:30,4.5,0,4.5
2018/1/4 18:00,0.1,0,0.1
2018/1/4 18:30,0,0,0
2018/1/4 19:00,0,0,0
2018/1/4 19:30,0,0,0
2018/1/4 20:00,0,0,0
2018/1/4 20:30,0,0,0
2018/1/4 21:00,0,0,0
2018/1/4 21:30,0,0,0
2018/1/4 22:00,0,0,0
2018/1/4 22:30,0,0,0
2018/1/4 23:00,0,0,0
2018/1/4 23:30,0,0,0
2018/1/5 0:00,0,0,0
2018/1/5 0:30,0,0,0
2018/1/5 1:00,0,0,0
2018/1/5 1:30,0,0,0
2018/1/5 2:00,0,0,0
2018/1/5 2:30,0,0,0
2018/1/5 3:00,0,0,0
2018/1/5 3:30,0,0,0
2018/1/5 4:00,0,0,0
2018/1/5 4:30,0,0,0
2018/1/5 5:00,0,0,0
2018/1/5 5:30,0,0,0
2018/1/5 6:00,0,0,0
2018/1/5 6:30,0,0,0
2018/1/5 7:00,0,0,0
2018/1/5 7:30,0,0.1,0.1
2018/1/5 8:00,2.8,0.1,2.9
2018/1/5 8:30,7.7,0.1,7.8
2018/1/5 9:00,12.8,0.1,12.9
2018/1/5 9:30,17.1,0.1,17.2
2018/1/5 10:00,19.2,0.1,19.3
2018/1/5 10:30,22.8,0.1,22.9
2018/1/5 11:00,26.8,0.1,26.9
2018/1/5 11:30,29.2,0,29.2
2018/1/5 12:00,30.7,0,30.7
2018/1/5 12:30,33.4,0,33.4
2018/1/5 13:00,36.2,0,36.2
2018/1/5 13:30,32,0,32
2018/1/5 14:00,24.7,0,24.7
2018/1/5 14:30,16,0,16
2018/1/5 15:00,15.1,0,15.1
2018/1/5 15:30,13,0,13
2018/1/5 16:00,10.5,0,10.5
2018/1/5 16:30,7.7,0,7.7
2018/1/5 17:00,5,0,5
2018/1/5 17:30,2.3,0,2.3
2018/1/5 18:00,0.1,0,0.1
2018/1/5 18:30,0,0,0
2018/1/5 19:00,0,0,0
2018/1/5 19:30,0,0,0
2018/1/5 20:00,0,0,0
2018/1/5 20:30,0,0,0
2018/1/5 21:00,0,0,0
2018/1/5 21:30,0,0,0
2018/1/5 22:00,0,0,0
2018/1/5 22:30,0,0,0
2018/1/5 23:00,0,0,0
2018/1/5 23:30,0,0,0
2018/1/6 0:00,0,0.1,0.1
2018/1/6 0:30,0,0.1,0.1
2018/1/6 1:00,0,0.1,0.1
2018/1/6 1:30,0,0.1,0.1
2018/1/6 2:00,0,0.1,0.1
2018/1/6 2:30,0,0.1,0.1
2018/1/6 3:00,0,0.1,0.1
2018/1/6 3:30,0,0.1,0.1
2018/1/6 4:00,0,0.1,0.1
2018/1/6 4:30,0,0.1,0.1
2018/1/6 5:00,0,0.1,0.1
2018/1/6 5:30,0,0.1,0.1
2018/1/6 6:00,0,0.1,0.1
2018/1/6 6:30,0,0.1,0.1
2018/1/6 7:00,0,0.2,0.2
2018/1/6 7:30,0,0.2,0.2
2018/1/6 8:00,4.5,0.3,4.8
2018/1/6 8:30,11.6,0.3,11.9
2018/1/6 9:00,18.8,0.4,19.2
2018/1/6 9:30,33.7,0.5,34.2
2018/1/6 10:00,40.5,0.5,41
2018/1/6 10:30,48.5,0.6,49.1
2018/1/6 11:00,52.1,0.6,52.7
2018/1/6 11:30,56.4,0.6,57
2018/1/6 12:00,57.7,0.7,58.4
2018/1/6 12:30,56.3,0.7,57
2018/1/6 13:00,53.2,0.6,53.8
2018/1/6 13:30,49.3,0.6,49.9
2018/1/6 14:00,45,0.6,45.6
2018/1/6 14:30,38.9,0.5,39.4
2018/1/6 15:00,31.6,0.4,32
2018/1/6 15:30,23.9,0.4,24.3
2018/1/6 16:00,17.8,0.3,18.1
2018/1/6 16:30,12.4,0.2,12.6
2018/1/6 17:00,7.6,0.2,7.8
2018/1/6 17:30,2.8,0.1,2.9
2018/1/6 18:00,0.1,0.1,0.2
2018/1/6 18:30,0,0.1,0.1
2018/1/6 19:00,0,0.1,0.1
2018/1/6 19:30,0,0,0
2018/1/6 20:00,0,0,0
2018/1/6 20:30,0,0,0
2018/1/6 21:00,0,0,0
2018/1/6 21:30,0,0,0
2018/1/6 22:00,0,0,0
2018/1/6 22:30,0,0,0
2018/1/6 23:00,0,0,0
2018/1/6 23:30,0,0,0
2018/1/7 0:00,0,0,0
2018/1/7 0:30,0,0,0
2018/1/7 1:00,0,0,0
2018/1/7 1:30,0,0,0
2018/1/7 2:00,0,0,0
2018/1/7 2:30,0,0,0
2018/1/7 3:00,0,0,0
2018/1/7 3:30,0,0,0
2018/1/7 4:00,0,0,0
2018/1/7 4:30,0,0,0
2018/1/7 5:00,0,0,0
2018/1/7 5:30,0,0,0
2018/1/7 6:00,0,0,0
2018/1/7 6:30,0,0,0
2018/1/7 7:00,0,0,0
2018/1/7 7:30,0,0,0
2018/1/7 8:00,1.5,0,1.5
2018/1/7 8:30,5.3,0,5.3
2018/1/7 9:00,8.9,0,8.9
2018/1/7 9:30,12.4,0,12.4
2018/1/7 10:00,15.5,0,15.5
2018/1/7 10:30,17.8,0,17.8
2018/1/7 11:00,19.5,0,19.5
2018/1/7 11:30,20.6,0,20.6
2018/1/7 12:00,20.9,0,20.9
2018/1/7 12:30,20.9,0,20.9
2018/1/7 13:00,20.5,0,20.5
2018/1/7 13:30,20.3,0,20.3
2018/1/7 14:00,19.6,0,19.6
2018/1/7 14:30,18.6,0,18.6
2018/1/7 15:00,16.8,0,16.8
2018/1/7 15:30,14.3,0,14.3
2018/1/7 16:00,11.4,0,11.4
2018/1/7 16:30,8.3,0,8.3
2018/1/7 17:00,5.1,0,5.1
2018/1/7 17:30,2,0,2
2018/1/7 18:00,0.1,0,0.1
2018/1/7 18:30,0,0,0
2018/1/7 19:00,0,0,0
2018/1/7 19:30,0,0,0
2018/1/7 20:00,0,0,0
2018/1/7 20:30,0,0,0
2018/1/7 21:00,0,0,0
2018/1/7 21:30,0,0,0
2018/1/7 22:00,0,0,0
2018/1/7 22:30,0,0,0
2018/1/7 23:00,0,0,0
2018/1/7 23:30,0,0,0
2018/1/8 0:00,0,0,0
2018/1/8 0:30,0,0,0
2018/1/8 1:00,0,0,0
2018/1/8 1:30,0,0,0
2018/1/8 2:00,0,0,0
2018/1/8 2:30,0,0,0
2018/1/8 3:00,0,0,0
2018/1/8 3:30,0,0,0
2018/1/8 4:00,0,0,0
2018/1/8 4:30,0,0,0
2018/1/8 5:00,0,0,0
2018/1/8 5:30,0,0.1,0.1
2018/1/8 6:00,0,0.1,0.1
2018/1/8 6:30,0,0.1,0.1
2018/1/8 7:00,0,0.1,0.1
2018/1/8 7:30,0,0.1,0.1
2018/1/8 8:00,2.1,0.2,2.3
2018/1/8 8:30,6.6,0.2,6.8
2018/1/8 9:00,11.2,0.2,11.4
2018/1/8 9:30,15.5,0.2,15.7
2018/1/8 10:00,20.4,0.2,20.6
2018/1/8 10:30,22.6,0.2,22.8
2018/1/8 11:00,15.6,0.2,15.8
2018/1/8 11:30,18.4,0.2,18.6
2018/1/8 12:00,19.5,0.2,19.7
2018/1/8 12:30,18.2,0.2,18.4
2018/1/8 13:00,18.3,0.2,18.5
2018/1/8 13:30,18.4,0.2,18.6
2018/1/8 14:00,18.3,0.2,18.5
2018/1/8 14:30,16.9,0.3,17.2
2018/1/8 15:00,19.7,0.3,20
2018/1/8 15:30,18.6,0.3,18.9
2018/1/8 16:00,17.5,0.3,17.8
2018/1/8 16:30,15,0.2,15.2
2018/1/8 17:00,9,0.2,9.2
2018/1/8 17:30,3.5,0.2,3.7
2018/1/8 18:00,0.1,0.3,0.4
2018/1/8 18:30,0,0.3,0.3
2018/1/8 19:00,0,0.3,0.3
2018/1/8 19:30,0,0.3,0.3
2018/1/8 20:00,0,0.3,0.3
2018/1/8 20:30,0,0.3,0.3
2018/1/8 21:00,0,0.3,0.3
2018/1/8 21:30,0,0.3,0.3
2018/1/8 22:00,0,0.4,0.4
2018/1/8 22:30,0,0.5,0.5
2018/1/8 23:00,0,0.6,0.6
2018/1/8 23:30,0,0.7,0.7
2018/1/9 0:00,0,0.8,0.8
2018/1/9 0:30,0,1,1
2018/1/9 1:00,0,1.2,1.2
2018/1/9 1:30,0,1.3,1.3
2018/1/9 2:00,0,1.5,1.5
2018/1/9 2:30,0,1.7,1.7
2018/1/9 3:00,0,2,2
2018/1/9 3:30,0,2.2,2.2
2018/1/9 4:00,0,2.4,2.4
2018/1/9 4:30,0,2.5,2.5
2018/1/9 5:00,0,2.6,2.6
2018/1/9 5:30,0,2.6,2.6
2018/1/9 6:00,0,2.7,2.7
2018/1/9 6:30,0,2.8,2.8
2018/1/9 7:00,0,3,3
2018/1/9 7:30,0,3.3,3.3
2018/1/9 8:00,1.2,3.5,4.7
2018/1/9 8:30,4.2,3.7,7.9
2018/1/9 9:00,7.3,3.9,11.2
2018/1/9 9:30,10.2,4.2,14.4
2018/1/9 10:00,12.6,4.4,17
2018/1/9 10:30,14.7,4.7,19.4
2018/1/9 11:00,16.7,4.9,21.6
2018/1/9 11:30,18.3,4.9,23.2
2018/1/9 12:00,19.7,4.8,24.5
2018/1/9 12:30,20.6,4.6,25.2
2018/1/9 13:00,21.1,4.3,25.4
2018/1/9 13:30,21.7,3.9,25.6
2018/1/9 14:00,22.3,3.5,25.8
2018/1/9 14:30,23,3.1,26.1
2018/1/9 15:00,22.1,2.7,24.8
2018/1/9 15:30,18.8,2.3,21.1
2018/1/9 16:00,14.7,1.9,16.6
2018/1/9 16:30,10.6,1.5,12.1
2018/1/9 17:00,6.6,1.2,7.8
2018/1/9 17:30,2.7,1,3.7
2018/1/9 18:00,0.1,0.8,0.9
2018/1/9 18:30,0,0.7,0.7
2018/1/9 19:00,0,0.8,0.8
2018/1/9 19:30,0,0.8,0.8
2018/1/9 20:00,0,0.8,0.8
2018/1/9 20:30,0,0.8,0.8
2018/1/9 21:00,0,0.8,0.8
2018/1/9 21:30,0,0.7,0.7
2018/1/9 22:00,0,0.6,0.6
2018/1/9 22:30,0,0.6,0.6
2018/1/9 23:00,0,0.5,0.5
2018/1/9 23:30,0,0.5,0.5
2018/1/10 0:00,0,0.6,0.6
2018/1/10 0:30,0,0.6,0.6
2018/1/10 1:00,0,0.6,0.6
2018/1/10 1:30,0,0.5,0.5
2018/1/10 2:00,0,0.5,0.5
2018/1/10 2:30,0,0.5,0.5
2018/1/10 3:00,0,0.5,0.5
2018/1/10 3:30,0,0.5,0.5
2018/1/10 4:00,0,0.5,0.5
2018/1/10 4:30,0,0.5,0.5
2018/1/10 5:00,0,0.5,0.5
2018/1/10 5:30,0,0.4,0.4
2018/1/10 6:00,0,0.4,0.4
2018/1/10 6:30,0,0.3,0.3
2018/1/10 7:00,0,0.3,0.3
2018/1/10 7:30,0,0.3,0.3
2018/1/10 8:00,3.3,0.3,3.6
2018/1/10 8:30,10.4,0.4,10.8
2018/1/10 9:00,17.9,0.4,18.3
2018/1/10 9:30,30.7,0.6,31.3
2018/1/10 10:00,43.4,0.7,44.1
2018/1/10 10:30,52.9,0.8,53.7
2018/1/10 11:00,61,1,62
2018/1/10 11:30,66.7,1.3,68
2018/1/10 12:00,70,1.7,71.7
2018/1/10 12:30,70.4,2.1,72.5
2018/1/10 13:00,69.4,2.4,71.8
2018/1/10 13:30,67.5,2.6,70.1
2018/1/10 14:00,64.2,2.8,67
2018/1/10 14:30,59,3,62
2018/1/10 15:00,53,3,56
2018/1/10 15:30,46.1,3,49.1
2018/1/10 16:00,37.8,2.9,40.7
2018/1/10 16:30,27.1,2.6,29.7
2018/1/10 17:00,17.2,2.2,19.4
2018/1/10 17:30,6.5,1.9,8.4
2018/1/10 18:00,0.4,1.5,1.9
2018/1/10 18:30,0,1.2,1.2
2018/1/10 19:00,0,0.9,0.9
2018/1/10 19:30,0,0.8,0.8
2018/1/10 20:00,0,0.7,0.7
2018/1/10 20:30,0,0.6,0.6
2018/1/10 21:00,0,0.4,0.4
2018/1/10 21:30,0,0.3,0.3
2018/1/10 22:00,0,0.2,0.2
2018/1/10 22:30,0,0.1,0.1
2018/1/10 23:00,0,0.1,0.1
2018/1/10 23:30,0,0.1,0.1
2018/1/11 0:00,0,0.2,0.2
2018/1/11 0:30,0,0.2,0.2
2018/1/11 1:00,0,0.1,0.1
2018/1/11 1:30,0,0.1,0.1
2018/1/11 2:00,0,0.2,0.2
2018/1/11 2:30,0,0.2,0.2
2018/1/11 3:00,0,0.2,0.2
2018/1/11 3:30,0,0.2,0.2
2018/1/11 4:00,0,0.3,0.3
2018/1/11 4:30,0,0.4,0.4
2018/1/11 5:00,0,0.5,0.5
2018/1/11 5:30,0,0.6,0.6
2018/1/11 6:00,0,0.8,0.8
2018/1/11 6:30,0,1.1,1.1
2018/1/11 7:00,0,1.4,1.4
2018/1/11 7:30,0,1.8,1.8
2018/1/11 8:00,4.6,2,6.6
2018/1/11 8:30,14.2,2.3,16.5
2018/1/11 9:00,21.2,2.5,23.7
2018/1/11 9:30,28.2,2.7,30.9
2018/1/11 10:00,34.9,2.9,37.8
2018/1/11 10:30,38.8,3,41.8
2018/1/11 11:00,42.6,3.1,45.7
2018/1/11 11:30,45.1,3.1,48.2
2018/1/11 12:00,46.8,3,49.8
2018/1/11 12:30,50.3,2.9,53.2
2018/1/11 13:00,54.1,2.8,56.9
2018/1/11 13:30,55.4,2.7,58.1
2018/1/11 14:00,52.9,2.5,55.4
2018/1/11 14:30,47.3,2.3,49.6
2018/1/11 15:00,42.3,2,44.3
2018/1/11 15:30,36.1,1.7,37.8
2018/1/11 16:00,28.8,1.5,30.3
2018/1/11 16:30,20.3,1.2,21.5
2018/1/11 17:00,12.8,1,13.8
2018/1/11 17:30,5.1,0.9,6
2018/1/11 18:00,0.3,0.8,1.1
2018/1/11 18:30,0,0.8,0.8
2018/1/11 19:00,0,0.9,0.9
2018/1/11 19:30,0,1,1
2018/1/11 20:00,0,1.1,1.1
2018/1/11 20:30,0,1.2,1.2
2018/1/11 21:00,0,1.3,1.3
2018/1/11 21:30,0,1.3,1.3
2018/1/11 22:00,0,1.4,1.4
2018/1/11 22:30,0,1.3,1.3
2018/1/11 23:00,0,1.3,1.3
2018/1/11 23:30,0,1.2,1.2
2018/1/12 0:00,0,0.5,0.5
2018/1/12 0:30,0,0.5,0.5
2018/1/12 1:00,0,0.5,0.5
2018/1/12 1:30,0,0.5,0.5
2018/1/12 2:00,0,0.6,0.6
2018/1/12 2:30,0,0.6,0.6
2018/1/12 3:00,0,0.7,0.7
2018/1/12 3:30,0,0.7,0.7
2018/1/12 4:00,0,0.7,0.7
2018/1/12 4:30,0,0.7,0.7
2018/1/12 5:00,0,0.7,0.7
2018/1/12 5:30,0,0.8,0.8
2018/1/12 6:00,0,0.9,0.9
2018/1/12 6:30,0,1,1
2018/1/12 7:00,0,1.1,1.1
2018/1/12 7:30,0,1.3,1.3
2018/1/12 8:00,3.7,1.5,5.2
2018/1/12 8:30,8.6,1.7,10.3
2018/1/12 9:00,14.9,1.9,16.8
2018/1/12 9:30,21.1,2.1,23.2
2018/1/12 10:00,27.5,2.2,29.7
2018/1/12 10:30,34.8,2.2,37
2018/1/12 11:00,40.3,2.2,42.5
2018/1/12 11:30,44.8,2.2,47
2018/1/12 12:00,48.7,2.2,50.9
2018/1/12 12:30,51.9,2.1,54
2018/1/12 13:00,59.5,2,61.5
2018/1/12 13:30,54.6,1.8,56.4
2018/1/12 14:00,46.2,1.6,47.8
2018/1/12 14:30,41.9,1.4,43.3
2018/1/12 15:00,36,1.2,37.2
2018/1/12 15:30,28.7,0.9,29.6
2018/1/12 16:00,22.7,0.7,23.4
2018/1/12 16:30,16.8,0.5,17.3
2018/1/12 17:00,10.5,0.3,10.8
2018/1/12 17:30,4.5,0.3,4.8
2018/1/12 18:00,0.4,0.2,0.6
2018/1/12 18:30,0,0.2,0.2
2018/1/12 19:00,0,0.1,0.1
2018/1/12 19:30,0,0.1,0.1
2018/1/12 20:00,0,0.1,0.1
2018/1/12 20:30,0,0.1,0.1
2018/1/12 21:00,0,0.1,0.1
2018/1/12 21:30,0,0.1,0.1
2018/1/12 22:00,0,0.1,0.1
2018/1/12 22:30,0,0.1,0.1
2018/1/12 23:00,0,0.1,0.1
2018/1/12 23:30,0,0.1,0.1
2018/1/13 0:00,0,0.1,0.1
2018/1/13 0:30,0,0.1,0.1
2018/1/13 1:00,0,0.1,0.1
2018/1/13 1:30,0,0.1,0.1
2018/1/13 2:00,0,0.1,0.1
2018/1/13 2:30,0,0.1,0.1
2018/1/13 3:00,0,0.1,0.1
2018/1/13 3:30,0,0.1,0.1
2018/1/13 4:00,0,0.1,0.1
2018/1/13 4:30,0,0.1,0.1
2018/1/13 5:00,0,0.1,0.1
2018/1/13 5:30,0,0.1,0.1
2018/1/13 6:00,0,0.1,0.1
2018/1/13 6:30,0,0.2,0.2
2018/1/13 7:00,0,0.2,0.2
2018/1/13 7:30,0,0.3,0.3
2018/1/13 8:00,4.7,0.3,5
2018/1/13 8:30,12.1,0.4,12.5
2018/1/13 9:00,17.8,0.4,18.2
2018/1/13 9:30,27,0.5,27.5
2018/1/13 10:00,43.2,0.5,43.7
2018/1/13 10:30,58.8,0.6,59.4
2018/1/13 11:00,66.6,0.6,67.2
2018/1/13 11:30,70,0.7,70.7
2018/1/13 12:00,70.9,0.8,71.7
2018/1/13 12:30,60.9,0.9,61.8
2018/1/13 13:00,56.1,0.9,57
2018/1/13 13:30,55.2,1,56.2
2018/1/13 14:00,56.9,1.1,58
2018/1/13 14:30,57.6,1,58.6
2018/1/13 15:00,59.6,0.9,60.5
2018/1/13 15:30,51.8,0.6,52.4
2018/1/13 16:00,41.1,0.4,41.5
2018/1/13 16:30,30.3,0.3,30.6
2018/1/13 17:00,17.7,0.1,17.8
2018/1/13 17:30,7.3,0.1,7.4
2018/1/13 18:00,0.6,0.1,0.7
2018/1/13 18:30,0,0,0
2018/1/13 19:00,0,0,0
2018/1/13 19:30,0,0,0
2018/1/13 20:00,0,0,0
2018/1/13 20:30,0,0,0
2018/1/13 21:00,0,0,0
2018/1/13 21:30,0,0,0
2018/1/13 22:00,0,0,0
2018/1/13 22:30,0,0,0
2018/1/13 23:00,0,0,0
2018/1/13 23:30,0,0,0
2018/1/14 0:00,0,0.1,0.1
2018/1/14 0:30,0,0.1,0.1
2018/1/14 1:00,0,0.1,0.1
2018/1/14 1:30,0,0.1,0.1
2018/1/14 2:00,0,0.1,0.1
2018/1/14 2:30,0,0.1,0.1
2018/1/14 3:00,0,0.1,0.1
2018/1/14 3:30,0,0.1,0.1
2018/1/14 4:00,0,0.1,0.1
2018/1/14 4:30,0,0.1,0.1
2018/1/14 5:00,0,0,0
2018/1/14 5:30,0,0,0
2018/1/14 6:00,0,0,0
2018/1/14 6:30,0,0,0
2018/1/14 7:00,0,0,0
2018/1/14 7:30,0,0,0
2018/1/14 8:00,4.3,0,4.3
2018/1/14 8:30,14,0,14
2018/1/14 9:00,23.7,0.1,23.8
2018/1/14 9:30,25.4,0.1,25.5
2018/1/14 10:00,29.4,0.1,29.5
2018/1/14 10:30,36.7,0,36.7
2018/1/14 11:00,41.1,0,41.1
2018/1/14 11:30,49.2,0,49.2
2018/1/14 12:00,59.9,0,59.9
2018/1/14 12:30,55.1,0,55.1
2018/1/14 13:00,49.6,0,49.6
2018/1/14 13:30,50.6,0,50.6
2018/1/14 14:00,50,0,50
2018/1/14 14:30,45.2,0,45.2
2018/1/14 15:00,38.4,0,38.4
2018/1/14 15:30,34.3,0,34.3
2018/1/14 16:00,28.8,0,28.8
2018/1/14 16:30,21,0,21
2018/1/14 17:00,13.5,0,13.5
2018/1/14 17:30,5.7,0,5.7
2018/1/14 18:00,0.5,0,0.5
2018/1/14 18:30,0,0,0
2018/1/14 19:00,0,0,0
2018/1/14 19:30,0,0,0
2018/1/14 20:00,0,0,0
2018/1/14 20:30,0,0,0
2018/1/14 21:00,0,0,0
2018/1/14 21:30,0,0,0
2018/1/14 22:00,0,0,0
2018/1/14 22:30,0,0,0
2018/1/14 23:00,0,0,0
2018/1/14 23:30,0,0,0
2018/1/15 0:00,0,0,0
2018/1/15 0:30,0,0,0
2018/1/15 1:00,0,0,0
2018/1/15 1:30,0,0,0
2018/1/15 2:00,0,0,0
2018/1/15 2:30,0,0,0
2018/1/15 3:00,0,0,0
2018/1/15 3:30,0,0,0
2018/1/15 4:00,0,0,0
2018/1/15 4:30,0,0,0
2018/1/15 5:00,0,0,0
2018/1/15 5:30,0,0,0
2018/1/15 6:00,0,0,0
2018/1/15 6:30,0,0,0
2018/1/15 7:00,0,0,0
2018/1/15 7:30,0,0,0
2018/1/15 8:00,4.4,0,4.4
2018/1/15 8:30,12.7,0,12.7
2018/1/15 9:00,24.8,0,24.8
2018/1/15 9:30,37.9,0,37.9
2018/1/15 10:00,46.7,0,46.7
2018/1/15 10:30,54.8,0,54.8
2018/1/15 11:00,60.6,0,60.6
2018/1/15 11:30,66.5,0,66.5
2018/1/15 12:00,70.6,0.1,70.7
2018/1/15 12:30,69.8,0.1,69.9
2018/1/15 13:00,71.7,0.2,71.9
2018/1/15 13:30,75.1,0.2,75.3
2018/1/15 14:00,65.8,0.2,66
2018/1/15 14:30,55.9,0.2,56.1
2018/1/15 15:00,50.7,0.2,50.9
2018/1/15 15:30,44.7,0.2,44.9
2018/1/15 16:00,36.8,0.1,36.9
2018/1/15 16:30,28.1,0.1,28.2
2018/1/15 17:00,18.7,0,18.7
2018/1/15 17:30,8.3,0,8.3
2018/1/15 18:00,0.8,0,0.8
2018/1/15 18:30,0,0,0
2018/1/15 19:00,0,0,0
2018/1/15 19:30,0,0,0
2018/1/15 20:00,0,0,0
2018/1/15 20:30,0,0,0
2018/1/15 21:00,0,0,0
2018/1/15 21:30,0,0,0
2018/1/15 22:00,0,0,0
2018/1/15 22:30,0,0,0
2018/1/15 23:00,0,0,0
2018/1/15 23:30,0,0,0
2018/1/16 0:00,0,0,0
2018/1/16 0:30,0,0,0
2018/1/16 1:00,0,0,0
2018/1/16 1:30,0,0,0
2018/1/16 2:00,0,0,0
2018/1/16 2:30,0,0,0
2018/1/16 3:00,0,0,0
2018/1/16 3:30,0,0,0
2018/1/16 4:00,0,0,0
2018/1/16 4:30,0,0,0
2018/1/16 5:00,0,0,0
2018/1/16 5:30,0,0,0
2018/1/16 6:00,0,0,0
2018/1/16 6:30,0,0,0
2018/1/16 7:00,0,0,0
2018/1/16 7:30,0,0,0
2018/1/16 8:00,4.8,0,4.8
2018/1/16 8:30,14.3,0,14.3
2018/1/16 9:00,25.8,0,25.8
2018/1/16 9:30,34,0,34
2018/1/16 10:00,44.5,0,44.5
2018/1/16 10:30,57.4,0,57.4
2018/1/16 11:00,66.6,0,66.6
2018/1/16 11:30,72.9,0,72.9
2018/1/16 12:00,76.3,0,76.3
2018/1/16 12:30,79.4,0,79.4
2018/1/16 13:00,80.4,0,80.4
2018/1/16 13:30,78.6,0,78.6
2018/1/16 14:00,75,0,75
2018/1/16 14:30,69.6,0,69.6
2018/1/16 15:00,62.2,0,62.2
2018/1/16 15:30,52.5,0,52.5
2018/1/16 16:00,40.8,0,40.8
2018/1/16 16:30,30.7,0,30.7
2018/1/16 17:00,19.9,0,19.9
2018/1/16 17:30,8.9,0,8.9
2018/1/16 18:00,0.8,0,0.8
2018/1/16 18:30,0,0,0
2018/1/16 19:00,0,0,0
2018/1/16 19:30,0,0,0
2018/1/16 20:00,0,0,0
2018/1/16 20:30,0,0,0
2018/1/16 21:00,0,0,0
2018/1/16 21:30,0,0,0
2018/1/16 22:00,0,0,0
2018/1/16 22:30,0,0,0
2018/1/16 23:00,0,0.1,0.1
2018/1/16 23:30,0,0.1,0.1
2018/1/17 0:00,0,0,0
2018/1/17 0:30,0,0,0
2018/1/17 1:00,0,0,0
2018/1/17 1:30,0,0,0
2018/1/17 2:00,0,0,0
2018/1/17 2:30,0,0,0
2018/1/17 3:00,0,0,0
2018/1/17 3:30,0,0.1,0.1
2018/1/17 4:00,0,0.1,0.1
2018/1/17 4:30,0,0.1,0.1
2018/1/17 5:00,0,0.1,0.1
2018/1/17 5:30,0,0.1,0.1
2018/1/17 6:00,0,0.1,0.1
2018/1/17 6:30,0,0.1,0.1
2018/1/17 7:00,0,0.2,0.2
2018/1/17 7:30,0,0.2,0.2
2018/1/17 8:00,2.9,0.2,3.1
2018/1/17 8:30,8.7,0.3,9
2018/1/17 9:00,16.2,0.3,16.5
2018/1/17 9:30,24.6,0.4,25
2018/1/17 10:00,30.2,0.5,30.7
2018/1/17 10:30,31.3,0.5,31.8
2018/1/17 11:00,29.9,0.5,30.4
2018/1/17 11:30,33.9,0.5,34.4
2018/1/17 12:00,37.9,0.5,38.4
2018/1/17 12:30,38.7,0.5,39.2
2018/1/17 13:00,38.9,0.6,39.5
2018/1/17 13:30,38.3,0.8,39.1
2018/1/17 14:00,43.8,1.2,45
2018/1/17 14:30,46.6,1.4,48
2018/1/17 15:00,44.4,1.6,46
2018/1/17 15:30,40.3,1.8,42.1
2018/1/17 16:00,33.9,1.9,35.8
2018/1/17 16:30,26.1,2,28.1
2018/1/17 17:00,17.3,1.9,19.2
2018/1/17 17:30,8.3,1.8,10.1
2018/1/17 18:00,1,1.6,2.6
2018/1/17 18:30,0,1.4,1.4
2018/1/17 19:00,0,1.2,1.2
2018/1/17 19:30,0,1,1
2018/1/17 20:00,0,0.9,0.9
2018/1/17 20:30,0,0.8,0.8
2018/1/17 21:00,0,0.7,0.7
2018/1/17 21:30,0,0.5,0.5
2018/1/17 22:00,0,0.4,0.4
2018/1/17 22:30,0,0.3,0.3
2018/1/17 23:00,0,0.2,0.2
2018/1/17 23:30,0,0.1,0.1
2018/1/18 0:00,0,0.1,0.1
2018/1/18 0:30,0,0,0
2018/1/18 1:00,0,0,0
2018/1/18 1:30,0,0,0
2018/1/18 2:00,0,0,0
2018/1/18 2:30,0,0,0
2018/1/18 3:00,0,0,0
2018/1/18 3:30,0,0,0
2018/1/18 4:00,0,0,0
2018/1/18 4:30,0,0,0
2018/1/18 5:00,0,0,0
2018/1/18 5:30,0,0,0
2018/1/18 6:00,0,0,0
2018/1/18 6:30,0,0,0
2018/1/18 7:00,0,0,0
2018/1/18 7:30,0,0,0
2018/1/18 8:00,5.7,0,5.7
2018/1/18 8:30,16.5,0,16.5
2018/1/18 9:00,27.7,0,27.7
2018/1/18 9:30,38.1,0.1,38.2
2018/1/18 10:00,47.4,0.1,47.5
2018/1/18 10:30,55.2,0.2,55.4
2018/1/18 11:00,61.4,0.2,61.6
2018/1/18 11:30,66.4,0.3,66.7
2018/1/18 12:00,69.9,0.4,70.3
2018/1/18 12:30,71.8,0.5,72.3
2018/1/18 13:00,69.8,0.6,70.4
2018/1/18 13:30,67.2,0.6,67.8
2018/1/18 14:00,64.8,0.6,65.4
2018/1/18 14:30,60.4,0.5,60.9
2018/1/18 15:00,49.8,0.5,50.3
2018/1/18 15:30,41.2,0.4,41.6
2018/1/18 16:00,32.4,0.3,32.7
2018/1/18 16:30,23.9,0.3,24.2
2018/1/18 17:00,15.7,0.2,15.9
2018/1/18 17:30,7.5,0.1,7.6
2018/1/18 18:00,0.9,0.1,1
2018/1/18 18:30,0,0,0
2018/1/18 19:00,0,0,0
2018/1/18 19:30,0,0,0
2018/1/18 20:00,0,0.1,0.1
2018/1/18 20:30,0,0.1,0.1
2018/1/18 21:00,0,0.1,0.1
2018/1/18 21:30,0,0,0
2018/1/18 22:00,0,0,0
2018/1/18 22:30,0,0,0
2018/1/18 23:00,0,0,0
2018/1/18 23:30,0,0,0
2018/1/19 0:00,0,0,0
2018/1/19 0:30,0,0,0
2018/1/19 1:00,0,0,0
2018/1/19 1:30,0,0,0
2018/1/19 2:00,0,0,0
2018/1/19 2:30,0,0,0
2018/1/19 3:00,0,0,0
2018/1/19 3:30,0,0,0
2018/1/19 4:00,0,0,0
2018/1/19 4:30,0,0,0
2018/1/19 5:00,0,0,0
2018/1/19 5:30,0,0,0
2018/1/19 6:00,0,0,0
2018/1/19 6:30,0,0,0
2018/1/19 7:00,0,0,0
2018/1/19 7:30,0,0,0
2018/1/19 8:00,4.7,0,4.7
2018/1/19 8:30,13.4,0,13.4
2018/1/19 9:00,21.4,0,21.4
2018/1/19 9:30,30.3,0,30.3
2018/1/19 10:00,33.6,0,33.6
2018/1/19 10:30,39,0,39
2018/1/19 11:00,44.2,0,44.2
2018/1/19 11:30,43.6,0,43.6
2018/1/19 12:00,43.8,0,43.8
2018/1/19 12:30,46.4,0,46.4
2018/1/19 13:00,42.6,0,42.6
2018/1/19 13:30,41.5,0,41.5
2018/1/19 14:00,39.9,0,39.9
2018/1/19 14:30,34.2,0,34.2
2018/1/19 15:00,27.5,0,27.5
2018/1/19 15:30,22.7,0,22.7
2018/1/19 16:00,18.7,0,18.7
2018/1/19 16:30,13.3,0,13.3
2018/1/19 17:00,8.7,0,8.7
2018/1/19 17:30,4.1,0,4.1
2018/1/19 18:00,0.5,0,0.5
2018/1/19 18:30,0,0,0
2018/1/19 19:00,0,0,0
2018/1/19 19:30,0,0,0
2018/1/19 20:00,0,0,0
2018/1/19 20:30,0,0,0
2018/1/19 21:00,0,0,0
2018/1/19 21:30,0,0,0
2018/1/19 22:00,0,0,0
2018/1/19 22:30,0,0,0
2018/1/19 23:00,0,0,0
2018/1/19 23:30,0,0,0
2018/1/20 0:00,0,0,0
2018/1/20 0:30,0,0,0
2018/1/20 1:00,0,0,0
2018/1/20 1:30,0,0,0
2018/1/20 2:00,0,0,0